Weather History for KMWK - March, 2014

Change the Weather History Date:

Monday, March 3, 2014

  Actual Average (KINT) Record (KINT)
Temperature  
Mean Temperature 40 °F -  
Max Temperature 57 °F 54 °F 81 °F (1976)
Min Temperature 24 °F 35 °F 4 °F (1980)
Degree Days  
Heating Degree Days 24    
Moisture  
Dew Point 35 °F    
Average Humidity 85    
Maximum Humidity 91    
Minimum Humidity 72    
Precipitation  
Precipitation 0.31 in - - ()
Sea Level Pressure  
Sea Level Pressure 29.98 in    
Wind  
Wind Speed 5 mph (ENE)    
Max Wind Speed 17 mph    
Max Gust Speed 28 mph    
Visibility 8 miles    
Events Rain , Snow    
Averages and records for this station are not official NWS values.
T = Trace of Precipitation, MM = Missing Value Source: NWS Daily Summary

Daily Weather History Graph

Daily Weather History Graph

Search for Another Location

Airport or City:

Trip Planner

Search our weather history database for the weather conditions in past years. The results will help you decide how hot, cold, wet, or windy it might be!

Date:

Astronomy

Mar. 03, 2014 Rise Set
Actual Time 6:50 AM EST 6:18 PM EST
Civil Twilight 6:24 AM EST 6:44 PM EST
Nautical Twilight 5:54 AM EST 7:14 PM EST
Astronomical Twilight 5:24 AM EST 7:44 PM EST
Moon 8:02 AM EST (3/3) 9:13 PM EST (3/3)
Length of Visible Light 12h 20m
Length of Day
11h 28m
Waxing Crescent, 8% of the Moon is Illuminated
Mar 3
Waxing Crescent
Mar 8
First Quarter
Mar 16
Full
Mar 23
Last Quarter
Mar 30
New

Hourly Weather History & Observations

Time (EST) Temp. Windchill Dew Point Humidity Pressure Visibility Wind Dir Wind Speed Gust Speed Precip Events Conditions
12:15 AM 53.6 °F - 48.4 °F 82% 29.88 in 10.0 mi Calm Calm - N/A   Mostly Cloudy
12:35 AM 53.6 °F - 48.4 °F 82% 29.85 in 10.0 mi Calm Calm - N/A   Overcast
12:55 AM 53.6 °F - 47.8 °F 81% 29.84 in 10.0 mi Calm Calm - N/A   Mostly Cloudy
1:15 AM 52.7 °F - 47.5 °F 82% 29.84 in 10.0 mi Calm Calm - N/A   Scattered Clouds
1:35 AM 53.2 °F - 48.2 °F 83% 29.84 in 10.0 mi Calm Calm - N/A   Scattered Clouds
1:55 AM 53.6 °F - 48.2 °F 82% 29.84 in 10.0 mi Calm Calm - N/A   Mostly Cloudy
2:15 AM 55.4 °F - 48.7 °F 78% 29.82 in 10.0 mi Calm Calm - N/A   Overcast
2:35 AM 57.0 °F - 48.2 °F 72% 29.82 in 10.0 mi Calm Calm - N/A   Overcast
2:55 AM 54.9 °F - 48.2 °F 78% 29.81 in 10.0 mi Calm Calm - N/A   Overcast
3:15 AM 54.1 °F - 49.1 °F 83% 29.79 in 10.0 mi Calm Calm - N/A   Overcast
3:35 AM 54.0 °F - 48.7 °F 82% 29.79 in 10.0 mi Calm Calm - N/A   Overcast
3:55 AM 53.8 °F - 48.7 °F 83% 29.79 in 10.0 mi Calm Calm - N/A   Overcast
4:15 AM 52.7 °F - 47.8 °F 84% 29.77 in 10.0 mi Calm Calm - N/A   Overcast
4:35 AM 54.5 °F - 47.8 °F 78% 29.79 in 10.0 mi Calm Calm - N/A   Overcast
4:55 AM 53.6 °F - 47.5 °F 80% 29.78 in 10.0 mi Calm Calm - N/A   Overcast
5:15 AM 53.6 °F - 47.5 °F 80% 29.79 in 10.0 mi Calm Calm - N/A   Overcast
5:35 AM 53.8 °F - 47.5 °F 79% 29.81 in 7.0 mi Calm Calm - N/A Rain Rain
5:55 AM 52.3 °F - 48.4 °F 86% 29.82 in 7.0 mi Calm Calm - 0.02 in Rain Rain
6:15 AM 51.1 °F - 48.4 °F 90% 29.80 in 4.0 mi East 3.5 mph - 0.02 in Rain Light Rain
6:35 AM 52.2 °F - 49.5 °F 91% 29.81 in 7.0 mi East 12.7 mph 17.3 mph 0.03 in Rain Light Rain
6:55 AM 50.7 °F - 47.8 °F 90% 29.81 in 7.0 mi ENE 16.1 mph 25.3 mph 0.04 in Rain Light Rain
7:15 AM 46.4 °F 39.8 °F 43.5 °F 90% 29.81 in 7.0 mi ENE 16.1 mph 25.3 mph 0.01 in Rain Light Rain
7:35 AM 44.6 °F 37.4 °F 41.7 °F 90% 29.85 in 7.0 mi ENE 16.1 mph 26.5 mph 0.02 in Rain Rain
7:55 AM 42.1 °F 33.9 °F 39.0 °F 89% 29.86 in 5.0 mi ENE 17.3 mph 25.3 mph 0.09 in Rain Rain
8:15 AM 41.2 °F 33.0 °F 38.3 °F 89% 29.90 in 7.0 mi NE 16.1 mph 27.6 mph 0.02 in Rain Light Rain
8:35 AM 40.8 °F 34.1 °F 37.8 °F 89% 29.90 in 10.0 mi ENE 11.5 mph 19.6 mph 0.03 in Rain Light Rain
8:55 AM 40.3 °F 34.9 °F 37.6 °F 90% 29.90 in 7.0 mi NE 8.1 mph 18.4 mph 0.05 in Rain Rain
9:15 AM 40.1 °F 32.4 °F 36.9 °F 88% 29.91 in 7.0 mi ENE 13.8 mph 20.7 mph 0.01 in Rain Rain
9:35 AM 39.4 °F 31.8 °F 36.5 °F 89% 29.92 in 10.0 mi ENE 12.7 mph 18.4 mph 0.01 in   Overcast
9:50 AM 38.8 °F 31.6 °F 35.6 °F 88% 29.92 in 5.0 mi ENE 11.5 mph 20.7 mph 0.01 in Rain Rain
10:15 AM 37.8 °F 29.4 °F 35.1 °F 90% 29.93 in 3.0 mi ENE 13.8 mph 23.0 mph 0.01 in Rain Light Rain
10:35 AM 36.9 °F 31.4 °F 33.8 °F 89% 29.94 in 3.0 mi NE 6.9 mph 18.4 mph 0.01 in   Drizzle
10:55 AM 36.0 °F 30.3 °F 33.1 °F 89% 29.95 in 3.0 mi NE 6.9 mph 18.4 mph 0.01 in   Light Drizzle
11:15 AM 35.6 °F 25.5 °F 32.5 °F 89% 29.95 in 4.0 mi NE 17.3 mph 26.5 mph N/A   Overcast
11:35 AM 35.1 °F 26.9 °F 32.0 °F 89% 29.97 in 4.0 mi NE 11.5 mph 21.9 mph 0.01 in   Overcast
11:55 AM 35.2 °F 26.6 °F 32.0 °F 88% 29.98 in 7.0 mi NE 12.7 mph 23.0 mph 0.01 in   Light Drizzle
12:15 PM 34.7 °F 24.7 °F 31.8 °F 89% 29.99 in 4.0 mi NE 16.1 mph 23.0 mph 0.01 in   Overcast
12:35 PM 34.5 °F 27.9 °F 31.3 °F 88% 30.00 in 4.0 mi ENE 8.1 mph 21.9 mph 0.03 in   Overcast
12:55 PM 34.3 °F 25.9 °F 31.5 °F 89% 30.00 in 7.0 mi ENE 11.5 mph 17.3 mph 0.03 in   Overcast
1:15 PM 34.3 °F 27.0 °F 31.1 °F 88% 30.00 in 4.0 mi NE 9.2 mph 17.3 mph N/A Snow Light Snow
1:35 PM 33.8 °F 25.3 °F 31.1 °F 90% 30.00 in 3.0 mi ENE 11.5 mph 16.1 mph 0.01 in   Overcast
1:55 PM 33.3 °F 25.7 °F 30.7 °F 90% 30.01 in 5.0 mi East 9.2 mph 17.3 mph 0.02 in Snow Light Snow
2:15 PM 32.4 °F 23.0 °F 29.8 °F 90% 30.00 in 5.0 mi ENE 12.7 mph 16.1 mph N/A   Overcast
2:30 PM 32.7 °F 24.5 °F 30.0 °F 90% 30.00 in 7.0 mi ENE 10.4 mph 16.1 mph N/A Snow Light Snow
2:55 PM 32.7 °F 23.0 °F 29.8 °F 89% 30.02 in 10.0 mi East 13.8 mph 17.3 mph N/A   Overcast
3:15 PM 32.2 °F 23.8 °F 29.3 °F 89% 30.03 in 2.0 mi East 10.4 mph 16.1 mph N/A Snow Light Snow
3:35 PM 32.0 °F 24.2 °F 28.4 °F 87% 30.04 in 3.0 mi East 9.2 mph 17.3 mph N/A Snow Light Snow
3:55 PM 31.5 °F 22.3 °F 28.2 °F 88% 30.04 in 1.5 mi East 11.5 mph - N/A Snow Light Snow
4:15 PM 30.2 °F 19.8 °F 27.3 °F 89% 30.05 in 0.2 mi ENE 13.8 mph 19.6 mph 0.01 in Snow Heavy Snow
4:35 PM 30.2 °F 20.8 °F 27.3 °F 89% 30.06 in 1.0 mi ENE 11.5 mph 17.3 mph 0.01 in Snow Light Snow
4:55 PM 30.4 °F 20.5 °F 27.0 °F 87% 30.08 in 5.0 mi ENE 12.7 mph 18.4 mph 0.02 in Snow Light Snow
5:15 PM 30.2 °F 18.9 °F 26.4 °F 86% 30.08 in 4.0 mi ENE 16.1 mph - 0.01 in Snow Light Snow
5:35 PM 30.0 °F 20.0 °F 26.1 °F 85% 30.09 in 7.0 mi ENE 12.7 mph 23.0 mph 0.01 in   Overcast
5:55 PM 30.0 °F 20.0 °F 25.9 °F 85% 30.11 in 10.0 mi ENE 12.7 mph 19.6 mph 0.01 in   Overcast
6:15 PM 30.0 °F 21.7 °F 25.5 °F 83% 30.12 in 10.0 mi ENE 9.2 mph - N/A   Overcast
6:35 PM 29.8 °F 20.9 °F 25.3 °F 83% 30.13 in 10.0 mi ENE 10.4 mph 16.1 mph N/A   Overcast
6:55 PM 29.7 °F 22.0 °F 25.0 °F 83% 30.15 in 10.0 mi NE 8.1 mph - N/A   Overcast
7:15 PM 29.7 °F 21.3 °F 24.6 °F 81% 30.15 in 10.0 mi ENE 9.2 mph - N/A   Mostly Cloudy
7:35 PM 29.3 °F 20.8 °F 24.3 °F 81% 30.16 in 10.0 mi ENE 9.2 mph - N/A   Scattered Clouds
7:55 PM 29.1 °F 20.0 °F 23.9 °F 81% 30.17 in 10.0 mi ENE 10.4 mph - N/A   Mostly Cloudy
8:15 PM 28.9 °F 21.1 °F 23.7 °F 81% 30.17 in 10.0 mi ENE 8.1 mph - N/A   Overcast
8:35 PM 28.8 °F 19.5 °F 23.7 °F 81% 30.19 in 10.0 mi East 10.4 mph - N/A   Overcast
8:55 PM 28.8 °F 20.9 °F 23.2 °F 80% 30.20 in 10.0 mi ENE 8.1 mph - N/A   Overcast
9:15 PM 28.8 °F - 23.0 °F 79% 30.21 in 10.0 mi Calm Calm - N/A   Overcast
9:35 PM 28.9 °F 23.9 °F 22.6 °F 77% 30.22 in 10.0 mi ENE 4.6 mph - N/A   Overcast
9:55 PM 28.9 °F 25.2 °F 22.8 °F 78% 30.22 in 10.0 mi NE 3.5 mph - N/A   Overcast
10:15 PM 28.4 °F 22.2 °F 22.1 °F 77% 30.22 in 10.0 mi ENE 5.8 mph - N/A   Mostly Cloudy
10:35 PM 27.0 °F 21.6 °F 21.2 °F 79% 30.21 in 10.0 mi ENE 4.6 mph - N/A   Scattered Clouds
10:55 PM 26.1 °F 18.4 °F 20.3 °F 79% 30.20 in 10.0 mi ENE 6.9 mph - N/A   Clear
11:15 PM 25.5 °F 18.7 °F 19.4 °F 78% 30.22 in 10.0 mi ENE 5.8 mph - N/A   Clear
11:35 PM 24.8 °F 20.5 °F 19.2 °F 79% 30.23 in 10.0 mi NE 3.5 mph - N/A   Clear
11:55 PM 24.6 °F 17.7 °F 19.2 °F 80% 30.22 in 10.0 mi ENE 5.8 mph - N/A   Clear